INSAT-3D

Last updated on Thu Nov 21 2024 00:02:19 GMT+0000 (Coordinated Universal Time)

1 39216U 13038B 24325.57390571 -.00000338 00000+0 00000+0 0 9992 2 39216 0.4386 90.6919 0002216 173.3036 132.2113 1.00270397 41324
UTC large
Height (km)
Speed (km/s)
/
Latitude / Longitude
Inclination (degrees)
Orbital Period (minutes)
Azimuth
Elevation
Range (km)
Doppler Factor

Next 0 passes for location: London (51.5072 / 0.1276)

Sorry there are no passes over London.